EA3ZD-15 Weather Reports


time (UTC)temp
F
wind
direction
speed
knots
gust
knots
rain 1hr
in
rain 24hr
in
rain mn
in
humidity
%
barometer
mb
20260510113516 0 213 1.7 7.0 0.00 0.00 0.00
20260510112542 0 203 1.7 9.6 0.00 0.00 0.00
20260510111540 0 215 0.9 5.2 0.00 0.00 0.00
20260510110558 0 200 0.9 7.0 0.00 0.00 0.00
20260510105616 0 202 2.6 7.8 0.00 0.00 0.00
20260510104534 0 143 1.7 4.3 0.00 0.00 0.00
20260510103531 0 202 2.6 7.0 0.00 0.00 0.00
20260510102516 0 196 2.6 7.0 0.00 0.00 0.00
20260510101542 0 152 2.6 7.0 0.00 0.00 0.00
20260510100539 0 203 1.7 10.4 0.00 0.00 0.00
20260510095537 0 0.0 0.0 0.00 0.00 0.00
20260510094536 0 222 0.9 8.7 0.00 0.00 0.00
20260510093533 0 0.0 0.0 0.00 0.00 0.00
20260510092532 0 206 3.5 7.0 0.00 0.00 0.00
20260510091515 0 219 2.6 7.8 0.00 0.00 0.00
20260510090541 0 237 2.6 7.0 0.00 0.00 0.00
20260510085540 0 226 5.2 8.7 0.00 0.00 0.00
20260510084538 0 217 3.5 7.0 0.00 0.00 0.00
20260510083536 0 216 1.7 8.7 0.00 0.00 0.00
20260510082533 0 230 3.5 7.0 0.00 0.00 0.00
20260510081532 0 219 3.5 7.8 0.00 0.00 0.00
20260510080515 0 237 4.3 7.0 0.00 0.00 0.00
20260510075541 0 227 3.5 5.2 0.00 0.00 0.00
20260510074539 0 251 2.6 5.2 0.00 0.00 0.00
20260510073537 0 239 3.5 7.0 0.00 0.00 0.00
20260510072535 0 227 3.5 7.0 0.00 0.00 0.00
20260510071534 0 261 2.6 7.0 0.00 0.00 0.00
20260510070532 0 230 4.3 8.7 0.00 0.00 0.00
20260510065515 0 242 2.6 5.2 0.00 0.00 0.00
20260510064542 0 227 3.5 7.8 0.00 0.00 0.00
20260510063539 0 233 2.6 7.0 0.00 0.00 0.00
20260510062537 0 227 2.6 8.7 0.00 0.00 0.00
20260510061535 0 244 2.6 5.2 0.00 0.00 0.00
20260510060533 0 225 1.7 6.1 0.00 0.00 0.00
20260510055551 0 223 0.9 5.2 0.00 0.00 0.00
20260510054515 0 0.0 0.0 0.00 0.00 0.00
20260510053541 0 236 0.0 3.5 0.00 0.00 0.00
20260510052539 0 236 0.0 4.3 0.00 0.00 0.00
20260510051558 0 0.0 0.0 0.00 0.00 0.00
20260510050555 0 224 0.0 4.3 0.00 0.00 0.00
20260510045533 0 235 0.9 5.2 0.00 0.00 0.00
20260510044531 0 243 0.9 5.2 0.00 0.00 0.00
20260510043515 0 221 1.7 5.2 0.00 0.00 0.00
20260510042541 0 0.0 0.0 0.00 0.00 0.00
20260510041539 0 0.0 0.0 0.00 0.00 0.00
20260510040537 0 0.0 0.0 0.00 0.00 0.00
20260510035535 0 0.0 0.0 0.00 0.00 0.00
20260510034533 0 0.0 0.0 0.00 0.00 0.00
20260510033531 0 0.0 0.0 0.00 0.00 0.00
20260510032515 0 0.0 3.5 0.00 0.00 0.00
20260510031541 0 253 2.6 4.3 0.00 0.00 0.00
20260510030539 0 243 3.5 5.2 0.00 0.00 0.00
20260510025557 0 248 4.3 5.2 0.00 0.00 0.00
20260510024535 0 234 5.2 7.8 0.00 0.00 0.00
20260510023533 0 239 4.3 7.0 0.00 0.00 0.00
20260510022531 0 239 4.3 6.1 0.00 0.00 0.00
20260510021535 0 0.0 5.2 0.00 0.00 0.00
20260510020541 0 258 0.0 3.5 0.00 0.00 0.00
20260510015539 0 244 0.9 5.2 0.00 0.00 0.00
20260510014537 0 240 1.7 6.1 0.00 0.00 0.00
20260510013555 0 0.0 0.0 0.00 0.00 0.00
20260510012533 0 0.0 0.0 0.00 0.00 0.00
20260510011531 0 0.0 0.0 0.00 0.00 0.00
20260510010515 0 0.0 0.0 0.00 0.00 0.00
20260510005541 0 0.0 0.0 0.00 0.00 0.00
20260510004539 0 0.0 0.0 0.00 0.00 0.00
20260510003537 0 0.0 0.0 0.00 0.00 0.00
20260510002535 0 0.0 0.0 0.00 0.00 0.00
20260510001533 0 0.0 0.0 0.00 0.00 0.00
20260510000517 0 0.0 0.0 0.00 0.00 0.00
20260509235515 0 0.0 0.0 0.00 0.00 0.00
20260509234541 0 0.0 0.0 0.00 0.00 0.00
20260509233539 0 0.0 0.0 0.00 0.00 0.00
20260509232537 0 0.0 0.0 0.00 0.00 0.00
20260509231535 0 0.0 0.0 0.00 0.00 0.00
20260509230533 0 0.0 0.0 0.00 0.00 0.00
20260509225517 0 0.0 0.0 0.00 0.00 0.00
20260509224515 0 0.0 0.0 0.00 0.00 0.00
20260509223541 0 0.0 0.0 0.00 0.00 0.00
20260509222559 0 0.0 0.0 0.00 0.00 0.00
20260509221537 0 0.0 0.0 0.00 0.00 0.00
20260509220555 0 0.0 0.0 0.00 0.00 0.00
20260509215533 0 0.0 0.0 0.00 0.00 0.00
20260509214517 0 0.0 0.0 0.00 0.00 0.00
20260509213515 0 0.0 0.0 0.00 0.00 0.00
20260509212541 0 0.0 0.0 0.00 0.00 0.00
20260509211539 0 0.0 0.0 0.00 0.00 0.00
20260509210537 0 0.0 0.0 0.00 0.00 0.00
20260509205535 0 0.0 0.0 0.00 0.00 0.00
20260509204533 0 0.0 0.0 0.00 0.00 0.00
20260509203517 0 0.0 0.0 0.00 0.00 0.00
20260509202515 0 0.0 0.0 0.00 0.00 0.00
20260509201601 0 0.0 0.0 0.00 0.00 0.00
20260509200539 0 0.0 0.0 0.00 0.00 0.00
20260509195537 0 0.0 0.0 0.00 0.00 0.00
20260509194535 0 0.0 0.0 0.00 0.00 0.00
20260509193553 0 0.0 0.0 0.00 0.00 0.00
20260509192517 0 0.0 0.0 0.00 0.00 0.00
20260509191515 0 0.0 0.0 0.00 0.00 0.00
20260509190541 0 0.0 0.0 0.00 0.00 0.00
20260509185539 0 0.0 0.0 0.00 0.00 0.00
20260509184537 0 0.0 0.0 0.00 0.00 0.00
20260509183555 0 0.0 0.0 0.00 0.00 0.00
20260509182533 0 0.0 0.0 0.00 0.00 0.00
20260509181537 0 0.0 0.0 0.00 0.00 0.00
20260509180515 0 0.0 0.0 0.00 0.00 0.00
20260509175541 0 0.0 0.0 0.00 0.00 0.00
20260509174539 0 0.0 0.0 0.00 0.00 0.00
20260509173537 0 0.0 1.7 0.00 0.00 0.00
20260509172535 0 319 0.0 4.3 0.00 0.00 0.00
20260509171533 0 0.0 0.0 0.00 0.00 0.00
20260509170517 0 0.0 0.0 0.00 0.00 0.00
20260509165535 0 0.0 3.5 0.00 0.00 0.00
20260509164541 0 0.0 0.0 0.00 0.00 0.00
20260509163539 0 278 0.0 4.3 0.00 0.00 0.00
20260509162537 0 0.0 0.0 0.00 0.00 0.00
20260509161555 0 319 0.9 5.2 0.00 0.00 0.00
20260509160553 0 0.0 0.0 0.00 0.00 0.00
20260509154515 0 0.0 0.0 0.00 0.00 0.00
20260509153541 0 0.0 3.5 0.00 0.00 0.00
20260509152539 0 115 0.9 3.5 0.00 0.00 0.00
20260509151537 0 0.0 0.0 0.00 0.00 0.00
20260509150535 0 0.0 5.2 0.00 0.00 0.00
20260509145533 0 0.0 0.0 0.00 0.00 0.00
20260509144517 0 0.0 0.0 0.00 0.00 0.00
20260509143603 0 0.0 0.0 0.00 0.00 0.00
20260509142541 0 0.0 0.0 0.00 0.00 0.00
20260509141539 0 0.0 0.0 0.00 0.00 0.00
20260509140537 0 0.0 0.0 0.00 0.00 0.00
20260509135535 0 0.0 0.0 0.00 0.00 0.00
20260509134532 0 0.0 0.0 0.00 0.00 0.00
20260509133517 0 0.0 0.0 0.00 0.00 0.00
20260509132543 0 0.0 0.0 0.00 0.00 0.00
20260509131541 0 0.0 0.0 0.00 0.00 0.00
20260509130539 0 0.0 0.0 0.00 0.00 0.00
20260509125536 0 0.0 0.0 0.00 0.00 0.00
20260509124535 0 0.0 0.0 0.00 0.00 0.00
20260509123553 0 0.0 0.0 0.00 0.00 0.00
20260509122516 0 0.0 0.0 0.00 0.00 0.00
20260509121543 0 0.0 0.0 0.00 0.00 0.00
20260509120601 0 0.0 0.0 0.00 0.00 0.00
20260509115539 0 0.0 0.0 0.00 0.00 0.00
20260509114537 0 0.0 0.0 0.00 0.00 0.00